Regional Weather Roundup
Issued by NWS

Home | Current Version | Previous Version | Text Only | Print | Product List | Glossary Off
Versions: 1 2 3 4 5 6 7 8 9 10 11 12 13 14 15 16 17 18 19 20 21 22 23 24 25 26 27 28 29 30 31 32 33 34 35 36 37 38 39 40 41 42 43 44 45 46 47 48 49 50

923
ASUS44 KJAN 252210
RWRMS

MISSISSIPPI HOURLY WEATHER ROUNDUP
NATIONAL WEATHER SERVICE JACKSON MS
500 PM CDT SAT OCT 25 2014

NOTE: "FAIR: INDICATES FEW OR NO CLOUDS BELOW 12,000 FEET WITH NO
SIGNIFICANT WEATHER AND/OR OBSTRUCTIONS TO VISIBILITY.

MSZ001>002-007>008-010>013-018>021-025>028-034>036-252300-
NORTHWEST MISSISSIPPI

CITY           SKY/WX    TMP DP  RH WIND       PRES   REMARKS
CLARKSDALE     FAIR      82  64  54 W8        30.03F
CLEVELAND      FAIR      81  65  58 W8        30.04S
GREENWOOD      SUNNY     80  62  54 CALM      30.05S
GREENVILLE     SUNNY     82  62  50 W8        30.04F
GRENADA          N/A    N/A N/A N/A MISG        N/A
OLIVE BRANCH   SUNNY     79  64  61 W6        30.02F
OXFORD         FAIR      77  61  57 SW5       30.06S
TUNICA         CLEAR     81  63  54 SW5       30.03S
$$

MSZ003>006-009-014>017-022>024-029>033-037>039-252300-
NORTHEAST MISSISSIPPI

CITY           SKY/WX    TMP DP  RH WIND       PRES   REMARKS
COLUMBUS AFB   SUNNY     79  60  52 W7        30.04S
CORINTH        FAIR      81  63  54 W7        30.02S
GOLDN TRIANGLE MOSUNNY   81  61  50 W7        30.04S
STARKVILLE     FAIR      79  63  57 W3        30.05S
TUPELO         SUNNY     80  62  54 W6        30.03S
$$

MSZ040-058-252300-
CENTRAL MISSISSIPPI

CITY           SKY/WX    TMP DP  RH WIND       PRES   REMARKS
JACKSON INTL   SUNNY     80  60  50 NW6       30.06F
JACKSON HAWKNS SUNNY     79  60  52 NW7       30.07S
MERIDIAN KEY   SUNNY     79  59  50 N7        30.05S
MERIDIAN NAS   SUNNY     79  58  48 N5        30.06S
RAYMOND        FAIR      79  73  83 NW8       30.07S
VICKSBURG      SUNNY     81  59  47 W6        30.06S
$$

MSZ059>079-252300-
SOUTH MISSISSIPPI

CITY           SKY/WX    TMP DP  RH WIND       PRES   REMARKS
BROOKHAVEN     FAIR      79  61  53 W6        30.09S
COLUMBIA       FAIR      79  59  50 MISG        N/A
HATTIESBURG    SUNNY     80  59  48 N6        30.06S
MCCOMB         SUNNY     81  53  37 N8        30.07F
NATCHEZ        SUNNY     79  55  44 W5        30.09S
PINE BELT      SUNNY     81  55  41 N5        30.08S
$$

MSZ080>082-252300-
COASTAL MISSISSIPPI

CITY           SKY/WX    TMP DP  RH WIND       PRES   REMARKS
BAY ST LOUIS   SUNNY     81  52  36 N7        30.05
BILOXI         SUNNY     79  57  45 N6        30.05S
PASCAGOULA     SUNNY     78  57  48 NW6       30.04S
GULFPORT       SUNNY     80  56  43 N8        30.04S
$$



USA.gov is the U.S. government's official web portal to all federal, state and local government web resources and services.